Tracking 19846 objects as of 19-Sep-2019
HD Live streaming from Space Station
objects crossing your sky now

FENGYUN 1C DEB

Track FENGYUN 1C DEB now!
10-day predictions


NORAD ID: 41832
Int'l Code: 1999-025EYK
Perigee: 814.6 km
Apogee: 908.4 km
Inclination: 98.9 °
Period: 102.0 minutes
Semi major axis: 7232 km
RCS: Unknown
Launch date: May 10, 1999
Source: People's Republic of China (PRC)
Launch site: Taiyaun Space Center, China (TSC)

Note: This is SATELLITE DEBRIS
aabbcc
Your satellite tracking list
Your tracking list is empty




NASA's NSSDC Master Catalog

Two Line Element Set (TLE):
1 41832U 99025EYK 19262.14372076  .00000539  00000-0  31596-3 0  9997
2 41832  98.8973 321.0907 0064824 233.1185 126.4034 14.11456406151451
Source of the keplerian elements: AFSPC